This demonstration page uses our WeatherBlox Daily Observations layout. Learn more.

Left ArrowRight Arrow

41.12389, -100.76542

Hourly Observations for July 14, 2018

Temp ( °F °C ) Dew Point ( °F °C ) Humidity (%) Winds ( mph kmh ) Pressure ( in mb ) Visibility ( mi km ) Precip ( " mm )
12:53 am 00:53 Clear 66 18.9 66 18.9 100 100 SE 3 6 30.07 1018 10 16 0.00 0.00
1:38 am 01:38 Mostly Cloudy 68 20 68 20 100 100 ESE 3 6 30.06 1018 10 16 0.00 0.00
1:53 am 01:53 Mostly Cloudy 68 20 68 20 100 100 SE 3 6 30.06 1018 10 16 0.00 0.00
2:53 am 02:53 Mostly Cloudy 68 20 68 20 100 100 Calm 30.06 1018 10 16 0.00 0.00
3:25 am 03:25 Partly Cloudy 66 18.9 66 18.9 100 100 Calm 30.03 1017 7 11 0.00 0.00
3:53 am 03:53 Clear with Mist and Fog 65 18.3 65 18.3 100 100 Calm 30.05 1018 3 4 0.00 0.00
4:02 am 04:02 Clear with Mist and Fog 66 18.9 66 18.9 100 100 Calm 30.06 1018 2 3 0.00 0.00
4:06 am 04:06 Clear with Mist and Fog 66 18.9 66 18.9 100 100 Calm 30.06 1018 1 1 0.00 0.00
4:13 am 04:13 Mostly Cloudy with Fog 65 18.3 65 18.3 100 100 Calm 30.03 1017 1 1 0.00 0.00
4:29 am 04:29 Mostly Cloudy with Mist and Fog 64 17.8 64 17.8 100 100 Calm 30.09 1019 1 2 0.00 0.00
4:36 am 04:36 Mostly Cloudy with Fog 64 17.8 64 17.8 100 100 Calm 30.03 1017 1 1 0.00 0.00
4:43 am 04:43 Partly Cloudy with Mist and Fog 64 17.8 64 17.8 100 100 Calm 30.03 1017 1 2 0.00 0.00
4:46 am 04:46 Mostly Cloudy with Mist and Fog 64 17.8 64 17.8 100 100 Calm 30.03 1017 2 2 0.00 0.00
4:53 am 04:53 Mostly Cloudy with Mist and Fog 64 17.8 64 17.8 100 100 Calm 30.05 1018 3 4 0.00 0.00
5:01 am 05:01 Cloudy with Mist and Fog 64 17.8 64 17.8 100 100 Calm 30.09 1019 5 8 0.00 0.00
5:21 am 05:21 Cloudy with Mist and Fog 66 18.9 66 18.9 100 100 Calm 30.06 1018 2 2 0.00 0.00
5:24 am 05:24 Cloudy with Mist and Fog 67 19.4 67 19.4 100 100 Calm 30.06 1018 1 2 0.00 0.00
5:33 am 05:33 Cloudy with Mist and Fog 67 19.4 67 19.4 100 100 Calm 30.06 1018 2 3 0.00 0.00
5:42 am 05:42 Cloudy with Mist and Fog 67 19.4 67 19.4 100 100 Calm 30.06 1018 3 5 0.00 0.00
5:50 am 05:50 Cloudy with Mist and Fog 66 19 66 19 100 100 Calm 30.06 1018 2 2 0.00 0.00
5:53 am 05:53 Cloudy with Mist and Fog 68 20 68 20 100 100 S 3 6 30.05 1018 1 1 0.00 0.00
6:53 am 06:53 Mostly Cloudy with Fog 68 20 68 20 100 100 WSW 6 9 30.06 1018 0 0 0.00 0.00
7:53 am 07:53 Mostly Cloudy with Fog 68 20 68 20 100 100 Calm 30.06 1018 0 0 0.00 0.00
8:09 am 08:09 Mostly Cloudy with Mist and Fog 68 20 68 20 100 100 Calm 30.06 1018 1 1 0.00 0.00
8:20 am 08:20 Cloudy with Mist and Fog 68 20 68 20 100 100 Calm 30.06 1018 2 2 0.00 0.00
8:27 am 08:27 Cloudy with Mist and Fog 68 20 68 20 100 100 Calm 30.06 1018 3 5 0.00 0.00
8:53 am 08:53 Cloudy with Mist and Fog 70 21.1 69 20.6 97 97 Calm 30.07 1018 6 10 0.00 0.00
9:01 am 09:01 Cloudy 70 21.1 69 20.6 97 97 Calm 30.03 1017 9 14 0.00 0.00
9:53 am 09:53 Cloudy 73 22.8 69 20.6 87 87 Calm 30.07 1018 10 16 0.00 0.00
10:06 am 10:06 Mostly Cloudy 75 23.9 69 20.6 82 82 SE 5 7 30.03 1017 10 16 0.00 0.00
10:20 am 10:20 Partly Cloudy 74 23.3 69 20.6 85 85 Calm 30.03 1017 10 16 0.00 0.00
10:33 am 10:33 Mostly Cloudy 76 24.4 69 20.6 79 79 ESE 5 7 30.00 1016 10 16 0.00 0.00
10:40 am 10:40 Partly Cloudy 76 24.4 69 20.6 79 79 Calm 30.00 1016 10 16 0.00 0.00
10:53 am 10:53 Mostly Sunny 77 25 69 20.6 77 77 E 6 9 30.06 1018 10 16 0.00 0.00
11:53 am 11:53 Sunny 80 26.7 69 20.6 69 69 VRB 3 6 30.05 1018 10 16 0.00 0.00
12:53 pm 12:53 Sunny 83 28.3 69 20.6 63 63 ENE 3 6 30.04 1017 10 16 0.00 0.00
1:53 pm 13:53 Partly Cloudy 85 29.4 69 20.6 59 59 Calm 30.01 1016 10 16 0.00 0.00
2:53 pm 14:53 Partly Cloudy 87 30.6 70 21.1 57 57 ESE 9 15 30.00 1016 10 16 0.00 0.00
3:53 pm 15:53 Sunny 88 31.1 69 20.6 54 54 E 12 19 29.98 1015 10 16 0.00 0.00
4:53 pm 16:53 Sunny 88 31.1 70 21.1 55 55 SE 9 15 29.97 1015 10 16 0.00 0.00
5:53 pm 17:53 Mostly Sunny 88 31.1 69 20.6 54 54 SSW 10 17 29.95 1014 10 16 0.00 0.00
6:53 pm 18:53 Sunny 87 30.6 69 20.6 55 55 SSW 8 13 29.93 1014 10 16 0.00 0.00
7:53 pm 19:53 Sunny 85 29.4 68 20 57 57 SSW 6 9 29.93 1014 10 16 0.00 0.00
8:53 pm 20:53 Sunny 80 26.7 69 20.6 69 69 S 5 7 29.93 1014 10 16 0.00 0.00
9:53 pm 21:53 Clear 73 22.8 70 21.1 90 90 SE 7 11 29.97 1015 10 16 0.00 0.00
10:53 pm 22:53 Clear 70 21.1 69 20.6 97 97 SE 8 13 29.98 1015 10 16 0.00 0.00
11:53 pm 23:53 Clear 69 20.6 69 20.6 100 100 SE 6 9 29.99 1016 10 16 0.00 0.00

Powered by AerisWeather